STARLINK-34630, 64948

Orbit data source: Space-Track

STARLINK-34630, 64948 is a payload satellite owned by SpaceX/Seattle (US) in SSO that was launched on Sat, 26 Jul 2025 UTC via an FALCON 9 launch vehicle from the Air Force Western Test Range (AFWTR). Payload-class satellites include a variety of spacecraft equipped with specific instruments for various scientific and technological missions. These include communications satellites like Starlink; space stations such as the ISS; scientific satellites like the Hubble; Earth observation satellites from companies like Planet Labs, Umbra, and HawkEye 360; GPS; miniature CubeSats for education and research; and military/defense satellites.

Loading next visibility...
Identifier
64948, 2025-158S
Orbit
SSO
Country
Flag of USUS
Related business
Manufacturer
SpaceX/Seattle
Mission
Operational Commercial Communications
Bus & Motor
STARLINK V2MO, Unknown motor
Mass
575 kg wet, ~530 kg dry
Launch date (UTC)
2025-07-26 (11 months ago)
Launch vehicle
FALCON 9
Launch site
Air Force Western Test Range (AFWTR)
Object type
Payload
Rocket body
Debris
Shape & HBR
Box + 2 Pan, 17.7 m
Radar Cross Section
36.964 m², Large (>1 m²)

Expand to show TLE details & history
Last TLE update: 16 hours ago

TLE from 16 hours ago
0 STARLINK-34630
1 64948U 25158S   26171.19135653  .00002867  00000-0  20252-3 0  9999
2 64948  97.3408  34.0930 0002381  79.1366 281.0129 15.05660606 50787
Epoch: 2026-06-20T04:35Z
TLE epoch observation values (Epoch: 2026-06-20T04:35:33.204Z)
Latitude
-0.00004°
Longitude
56.79513°
Altitude
552.237 km
Speed
7.586 km/s
True Right ascension
02h 16m 22s
True Declination
0° 00' 00"
Sunlit
Object was in daylight at epoch
Visualization orbit readout
Latitude
Unknown
Longitude
Unknown
Altitude
Unknown
Speed
Unknown
Apparent Right ascension
Unknown
Apparent Declination
Unknown
Sunlit
N/A
Visualization observer readout
Local Sidereal Time
07:13:36
Azimuth
Unknown
Elevation
Unknown
Doppler factor
Unknown
Orbital elements
Apogee altitude
548.11 km
Perigee altitude
544.812 km
Semi-major axis
6,924.598 km
Eccentricity
0.00024
Inclination
97.3408°
RAAN
34.093°
Arg. of periapsis
79.1366°
True anomaly
280.98612°
Mean anomaly
281.0129°
Eccentric anomaly
280.99951°
Mean motion
3.76662 °/min
Orbital period
95.58 mins
BSTAR
0.00020252
Loading maneuver chart data...
Computing Atmospheric mass density...
Loading historical data...
Loading historical data...
Loading historical data...
Loading historical data...
Loading historical data...
Loading historical data...
Loading historical data...

Documentation

Showing up to 5 results
|